Vertical_Velocity
-2 3 2 1 1 1 0 0 0 0 1 0 -1 0 -1 -0 -1 -1 -1 -1 0 2 -0 -2 -4 -2 -1 -1 -3 -1 -1 -1 -1 -1 1 -1 -2 -0 -1 0 0 1 -1
4 3 2 -0 -1 0 1 0 1 0 1 1 1 -0 1 0 0 0 -1 -1 -1 0 1 -0 -2 -3 0 -2 -4 0 -0 -3 -3 -2 -0 -3 -2 -2 -1 -0 1 0 -0
1 3 2 1 3 1 -0 0 -1 0 1 1 -0 0 1 -1 -0 -0 -1 -1 -1 0 1 0 -1 -2 -1 0 -3 -2 -1 1 -2 -3 -2 -1 -1 -3 -1 -1 -1 -1 -1
4 4 5 2 1 1 1 -0 -1 2 1 1 1 1 2 1 0 0 -1 -0 -0 -0 -1 -0 -1 -2 1 -0 -2 -1 0 0 -2 -2 -1 -2 -0 -1 -3 1 0 0 -0
-0 -1 3 2 2 1 -1 1 2 1 -0 1 2 2 0 -1 1 -1 -2 -1 -0 -0 0 -0 0 -2 -2 1 -1 -1 -0 -0 -2 -2 -2 -2 -1 -0 -1 -4 -3 3 -0
-1 2 1 0 1 4 1 1 -0 1 1 1 1 1 1 1 0 -1 -0 -0 -1 -0 0 1 0 -0 -0 -1 -1 -1 0 1 1 -0 -1 -2 -2 -0 0 -2 -2 -3 -1
-0 -1 1 0 2 1 1 2 1 0 1 2 1 -0 0 0 1 1 1 0 -0 -1 -1 1 -0 1 0 -0 -3 -2 -1 -0 1 1 1 0 -0 -1 1 0 0 -3 -7
2 1 4 2 3 3 2 2 1 1 1 0 0 1 1 0 -0 -0 -0 2 1 0 2 1 -0 -0 -0 0 0 -0 0 -1 0 1 -1 -0 1 0 1 1 1 -5 -3
2 1 3 2 2 1 2 2 3 3 2 2 1 1 0 1 2 1 1 1 2 2 0 0 2 1 1 0 1 1 1 0 1 2 2 1 1 1 1 2 2 3 -1
1 2 2 1 1 0 -0 0 1 0 -1 0 1 1 1 1 1 1 1 2 1 2 1 2 2 0 1 0 -0 1 1 -0 1 2 1 0 1 -0 0 1 2 2 3
1 0 0 1 1 1 1 0 1 1 2 2 2 0 -1 -1 0 0 0 1 0 0 1 0 1 1 1 1 0 0 1 -1 1 3 0 2 3 -0 2 2 3 2 6
1 1 1 0 1 1 1 1 1 1 1 1 2 1 1 0 1 0 -1 0 1 0 0 1 1 0 1 2 -0 -0 1 0 -0 1 1 -3 3 -2 2 2 0 1 7
2 1 2 1 1 1 1 1 1 0 0 -0 0 1 1 1 2 1 1 1 1 1 1 0 -0 -0 0 -1 1 -1 -1 -0 0 0 1 0 1 -1 -1 1 -1 0 2
0 1 1 1 1 1 -0 -1 -2 -1 -1 -0 0 -0 -0 1 -0 -1 0 -0 0 1 1 0 0 -0 0 -2 -1 1 0 1 2 2 1 1 1 1 1 0 0 1 0
1 0 -0 0 0 0 0 1 1 1 1 -0 -0 -2 -1 -0 -0 1 0 0 -1 -1 -2 -2 -1 -1 -1 -1 -2 -0 1 1 -1 0 0 0 1 0 2 2 -2 1 3
0 1 1 1 1 1 1 0 -1 -1 0 -0 -1 -0 -0 -1 -2 -1 -2 -3 -1 -1 -2 -1 -1 -0 0 0 1 1 -2 0 0 -2 -2 1 -1 -0 1 2 5 10 3
-1 -1 0 0 0 -0 0 0 0 1 -0 -1 -1 -1 -1 -0 -0 -1 -1 -2 -4 -4 -2 -2 -3 -5 -3 -1 0 1 0 -2 -2 -1 -1 -2 -2 -2 -0 1 1 -0 1
-1 -1 -2 -1 -0 -0 0 -0 -0 -0 -0 -1 -1 1 1 -3 -6 -7 -6 -2 -1 -1 -3 -2 -0 -0 -1 -1 -1 -0 -0 0 1 0 -0 -1 -2 -3 -0 -1 -5 -2 -1
-1 -1 1 1 0 0 -0 -0 -2 -2 -1 1 -1 -5 -6 -3 -0 1 0 -0 -2 -1 1 2 -1 0 -1 1 2 2 0 -1 -2 -1 -2 0 -2 0 1 1 -2 -2 -5
-1 -2 1 1 1 -1 -1 1 1 1 -2 -4 -2 0 1 -0 -0 0 0 -1 -0 -2 -2 -3 1 2 -2 0 -0 0 -0 -1 -0 -1 1 2 1 -1 1 5 4 -2 -1
-0 1 0 0 1 1 2 1 -1 -2 -2 -1 -0 1 1 -1 -1 -4 -2 -1 -1 -0 -1 -3 -4 -6 -2 -3 -2 -2 2 -2 -6 -1 -1 -6 -1 -3 -2 3 2 -2 -0
-0 2 1 3 4 2 -0 -1 -0 0 -0 -2 -2 -2 -1 1 1 -0 -2 -3 -3 -3 -3 -5 -6 -4 -2 1 -2 -3 -1 3 10 -1 -2 -1 1 -2 -2 -0 2 7 7
1 2 0 -3 1 2 0 -0 -1 0 1 1 -1 -5 -6 -5 -4 -3 -3 -3 -2 -2 -2 -1 -2 -2 1 -1 0 -3 -0 -0 2 1 -0 4 1 -2 -1 1 -0 1 -1
-3 -3 1 1 2 3 1 -0 -1 -3 -5 -5 -4 -2 -2 -3 -2 1 3 2 0 -2 -2 1 -3 -4 -3 -5 -4 -7 -7 -4 -3 -4 -5 -3 -2 2 1 -1 2 1 0
2 0 0 -1 0 0 -0 0 -0 -1 -0 1 1 1 2 2 -1 -0 -1 -3 -1 3 3 -1 0 -4 -4 -5 3 7 9 5 7 12 5 -4 -3 -3 -3 -3 -1 -0 0
1 1 -0 1 2 1 -1 0 0 1 -0 -1 -2 -3 -4 -3 -1 -2 -2 1 1 -1 -2 -2 4 -1 1 -1 -1 2 1 1 2 2 -0 0 -0 -1 -1 -1 -2 1 1
Height
1498 1501 1505 1508 1511 1513 1515 1518 1520 1522 1524 1526 1528 1530 1531 1532 1534 1535 1535 1536 1535 1534 1532 1531 1531 1531 1529 1528 1526 1525 1523 1521 1519 1518 1517 1516 1516 1516 1516 1515 1514 1512 1510
1494 1497 1500 1503 1507 1509 1512 1515 1517 1520 1523 1525 1526 1528 1529 1530 1532 1533 1534 1534 1534 1533 1532 1530 1529 1529 1528 1527 1526 1525 1523 1521 1520 1518 1517 1516 1517 1516 1515 1515 1514 1512 1510
1489 1494 1497 1500 1504 1506 1508 1511 1515 1518 1521 1523 1524 1526 1527 1529 1530 1531 1532 1533 1532 1532 1531 1529 1528 1528 1527 1526 1525 1524 1523 1521 1520 1519 1519 1518 1517 1516 1515 1514 1513 1512 1510
1489 1493 1496 1498 1501 1504 1507 1509 1512 1515 1518 1521 1523 1525 1526 1527 1528 1529 1530 1531 1531 1530 1530 1529 1528 1527 1527 1525 1525 1524 1522 1521 1520 1519 1519 1519 1518 1517 1515 1514 1512 1511 1509
1487 1491 1494 1495 1499 1501 1504 1507 1509 1512 1516 1519 1521 1523 1524 1525 1526 1527 1528 1528 1529 1529 1528 1528 1527 1526 1526 1525 1523 1523 1522 1520 1519 1519 1518 1518 1518 1517 1516 1512 1511 1510 1507
1485 1488 1490 1492 1496 1499 1502 1504 1507 1510 1513 1516 1518 1521 1522 1523 1524 1525 1526 1527 1527 1527 1526 1526 1526 1525 1524 1523 1522 1522 1521 1520 1518 1517 1516 1516 1516 1516 1515 1512 1509 1506 1505
1485 1486 1488 1491 1495 1498 1501 1503 1505 1508 1511 1513 1516 1518 1520 1521 1522 1523 1524 1525 1525 1525 1525 1525 1524 1524 1523 1521 1521 1520 1519 1518 1517 1516 1515 1514 1514 1514 1513 1511 1508 1505 1501
1485 1487 1489 1491 1495 1498 1500 1502 1504 1507 1509 1511 1514 1516 1517 1518 1519 1520 1521 1522 1522 1522 1522 1522 1522 1521 1520 1520 1518 1518 1517 1516 1515 1514 1513 1513 1512 1511 1510 1509 1507 1504 1501
1485 1487 1488 1490 1493 1495 1498 1501 1504 1505 1507 1509 1511 1512 1513 1514 1516 1517 1518 1519 1519 1519 1519 1519 1518 1518 1518 1517 1516 1516 1515 1514 1513 1512 1511 1510 1509 1508 1508 1507 1505 1504 1501
1485 1487 1488 1490 1492 1494 1497 1499 1501 1502 1504 1506 1507 1509 1510 1511 1512 1513 1514 1515 1515 1515 1515 1515 1515 1514 1514 1514 1513 1513 1512 1511 1510 1509 1508 1507 1506 1505 1504 1503 1502 1500 1499
1484 1486 1487 1490 1492 1493 1495 1497 1499 1500 1502 1503 1504 1505 1506 1507 1508 1509 1510 1511 1511 1511 1511 1511 1510 1510 1510 1510 1509 1508 1508 1507 1506 1505 1503 1502 1501 1500 1499 1498 1497 1496 1494
1484 1486 1488 1489 1491 1493 1494 1495 1496 1497 1498 1500 1501 1503 1504 1505 1506 1506 1507 1508 1507 1507 1508 1507 1507 1506 1506 1506 1505 1504 1503 1502 1501 1499 1497 1496 1495 1494 1493 1492 1491 1490 1489
1484 1486 1488 1489 1491 1492 1493 1494 1495 1496 1497 1498 1499 1500 1502 1503 1503 1503 1504 1504 1505 1504 1504 1503 1503 1502 1502 1501 1500 1499 1498 1497 1495 1494 1492 1490 1489 1487 1487 1486 1484 1483 1481
1483 1485 1487 1489 1491 1492 1493 1494 1495 1497 1498 1499 1500 1500 1501 1502 1501 1502 1503 1503 1502 1502 1501 1500 1500 1499 1498 1497 1496 1494 1492 1491 1489 1488 1486 1484 1483 1481 1480 1479 1477 1476 1473
1481 1484 1486 1488 1489 1491 1493 1494 1495 1497 1498 1499 1500 1500 1501 1501 1502 1502 1501 1501 1501 1500 1499 1498 1497 1496 1494 1493 1491 1489 1487 1485 1483 1481 1480 1478 1476 1475 1473 1471 1469 1468 1466
1479 1482 1484 1486 1488 1490 1491 1494 1495 1497 1498 1499 1500 1501 1501 1501 1501 1501 1500 1500 1499 1498 1497 1495 1494 1492 1491 1489 1487 1484 1482 1479 1477 1474 1473 1471 1469 1467 1465 1463 1462 1461 1457
1475 1479 1482 1485 1487 1490 1492 1494 1495 1497 1498 1499 1499 1500 1500 1500 1499 1499 1498 1498 1496 1495 1493 1491 1489 1487 1486 1483 1481 1479 1475 1473 1471 1468 1466 1463 1462 1460 1458 1455 1453 1452 1451
1473 1477 1481 1484 1486 1489 1491 1493 1495 1496 1497 1498 1499 1499 1498 1498 1498 1497 1496 1494 1492 1490 1487 1485 1484 1481 1479 1477 1475 1472 1470 1467 1465 1462 1460 1457 1455 1454 1451 1449 1446 1444 1442
1471 1476 1479 1482 1485 1487 1490 1492 1494 1495 1496 1496 1496 1496 1496 1496 1495 1493 1491 1489 1487 1485 1482 1480 1477 1475 1473 1471 1469 1466 1462 1459 1457 1455 1453 1451 1448 1447 1445 1442 1440 1437 1435
1471 1474 1478 1481 1484 1486 1488 1490 1491 1492 1493 1493 1494 1494 1493 1492 1490 1488 1486 1484 1481 1478 1476 1473 1471 1468 1465 1464 1461 1459 1456 1453 1450 1448 1446 1444 1442 1440 1438 1436 1434 1430 1428
1470 1474 1478 1480 1483 1485 1487 1488 1488 1490 1491 1491 1491 1490 1489 1487 1485 1483 1481 1478 1475 1473 1470 1467 1465 1462 1460 1457 1455 1453 1451 1448 1445 1442 1440 1438 1436 1433 1431 1429 1427 1424 1422
1470 1475 1478 1481 1482 1484 1485 1486 1487 1487 1487 1487 1486 1485 1484 1482 1480 1477 1475 1472 1470 1467 1464 1461 1457 1456 1454 1452 1450 1447 1445 1442 1439 1436 1433 1431 1429 1427 1426 1424 1421 1418 1416
1470 1474 1477 1480 1482 1482 1483 1483 1484 1483 1483 1482 1481 1479 1478 1476 1474 1471 1469 1467 1465 1461 1458 1455 1451 1448 1446 1444 1442 1438 1436 1433 1432 1429 1427 1424 1422 1420 1418 1416 1414 1412 1408
1470 1474 1477 1479 1481 1481 1480 1480 1480 1479 1478 1477 1476 1474 1472 1470 1468 1466 1463 1460 1458 1455 1452 1449 1446 1442 1439 1436 1434 1431 1428 1426 1424 1422 1419 1417 1415 1413 1411 1408 1406 1404 1401
1471 1474 1475 1477 1478 1477 1477 1476 1475 1474 1472 1471 1469 1467 1465 1463 1460 1458 1457 1455 1453 1452 1448 1445 1442 1437 1433 1432 1430 1427 1424 1420 1418 1415 1411 1409 1407 1404 1402 1400 1397 1396 1394
1470 1472 1473 1474 1474 1473 1472 1471 1470 1468 1466 1465 1463 1461 1459 1457 1455 1452 1450 1450 1448 1446 1443 1440 1437 1434 1430 1427 1424 1421 1417 1414 1411 1408 1405 1402 1400 1397 1395 1392 1390 1389 1388